CANX-4

Last updated on Thu Dec 18 2025 00:03:49 GMT+0000 (Coordinated Universal Time)

1 40055U 14034C 25351.61885890 .00001047 00000+0 14317-3 0 9997 2 40055 98.3358 215.0146 0011785 231.8080 128.2070 14.80800604617651
UTC large
Height (km)
Speed (km/s)
/
Latitude / Longitude
Inclination (degrees)
Orbital Period (minutes)
Azimuth
Elevation
Range (km)
Doppler Factor

Next 0 passes for location: London (51.5072 / 0.1276)

Sorry there are no passes over London.